EW9837 Weather Reports


time (UTC)temp
C
wind
direction
speed
KPH
gust
KPH
rain 1hr
cm
rain 24hr
cm
rain mn
cm
humidity
%
barometer
mb
20260509151537 12 338 3.2 6.4 0.00 0.00 0.00 66 1023.7
20260509150036 12 19 1.6 4.8 0.00 0.00 0.00 73 1023.6
20260509144533 11 62 0.0 4.8 0.00 0.00 0.00 82 1023.7
20260509143032 8 90 0.0 0.0 0.00 0.00 0.00 94 1023.6
20260509141533 5 112 1.6 4.8 0.00 0.00 0.00 95 1023.5
20260509140142 3 156 3.2 4.8 0.00 0.00 0.00 95 1023.3
20260509134541 2 200 1.6 4.8 0.00 0.00 0.00 94 1023.1
20260509133107 1 157 1.6 6.4 0.00 0.00 0.00 94 1022.9
20260509131607 1 141 4.8 6.4 0.00 0.00 0.00 94 1022.9
20260509130034 1 150 4.8 6.4 0.00 0.00 0.00 94 1022.7
20260509124628 1 158 4.8 6.4 0.00 0.00 0.00 94 1022.6
20260509123036 2 230 1.6 4.8 0.00 0.00 0.00 94 1022.5
20260509120035 2 173 3.2 8.0 0.00 0.00 0.00 93 1022.5
20260509114533 2 168 4.8 8.0 0.00 0.00 0.00 93 1022.5
20260509113034 2 173 4.8 6.4 0.00 0.00 0.00 93 1022.6
20260509111538 3 195 3.2 6.4 0.00 0.00 0.00 92 1022.7
20260509110036 3 248 1.6 6.4 0.00 0.00 0.00 92 1022.7
20260509104536 3 146 1.6 6.4 0.00 0.00 0.00 91 1022.7
20260509103105 3 175 1.6 8.0 0.00 0.00 0.00 90 1022.8
20260509101535 3 186 0.0 4.8 0.00 0.00 0.00 89 1022.8
20260509100108 4 183 3.2 6.4 0.00 0.00 0.00 88 1023.0
20260509094534 5 183 4.8 8.0 0.00 0.00 0.00 88 1023.0
20260509093035 5 177 4.8 8.0 0.00 0.00 0.00 86 1023.2
20260509091535 6 156 3.2 8.0 0.00 0.00 0.00 85 1023.3
20260509090035 7 152 6.4 16.1 0.00 0.00 0.00 86 1023.4
20260509084544 6 138 6.4 12.9 0.00 0.00 0.00 88 1023.6
20260509084535 6 174 4.8 12.9 0.00 0.00 0.00 87 1023.8
20260509073034 7 170 4.8 9.7 0.00 0.00 0.00 85 1024.5
20260509071536 6 212 8.0 9.7 0.00 0.00 0.00 84 1024.5
20260509064606 7 180 3.2 6.4 0.00 0.00 0.00 80 1024.7
20260509063035 8 197 3.2 6.4 0.00 0.00 0.00 79 1024.7
20260509061534 9 173 1.6 6.4 0.00 0.00 0.00 77 1024.7
20260509054540 10 172 1.6 4.8 0.00 0.00 0.00 73 1024.7
20260509054534 10 142 3.2 6.4 0.00 0.00 0.00 73 1024.6
20260509051534 10 115 3.2 6.4 0.00 0.00 0.00 73 1024.5
20260509050111 10 324 3.2 11.3 0.00 0.00 0.00 73 1024.4
20260509044531 10 308 3.2 8.0 0.00 0.00 0.00 71 1024.3
20260509043031 11 308 0.0 4.8 0.00 0.00 0.00 67 1024.3
20260509041532 12 165 1.6 9.7 0.00 0.00 0.00 64 1024.1
20260509040034 12 298 1.6 14.5 0.00 0.00 0.00 63 1023.9
20260509034542 12 284 3.2 11.3 0.00 0.00 0.00 61 1023.8
20260509033143 13 272 3.2 17.7 0.00 0.00 0.00 60 1023.5
20260509024534 14 272 6.4 22.5 0.00 0.00 0.00 54 1023.2
20260509023034 15 257 9.7 25.7 0.00 0.00 0.00 51 1023.1
20260509021532 15 271 6.4 22.5 0.00 0.00 0.00 49 1023.0
20260509020036 16 251 11.3 27.4 0.00 0.00 0.00 47 1023.0
20260509014535 16 250 11.3 30.6 0.00 0.00 0.00 44 1023.0
20260509010153 17 241 11.3 24.1 0.00 0.00 0.00 40 1022.9
20260509004537 17 286 9.7 20.9 0.00 0.00 0.00 38 1022.8
20260509003106 18 301 8.0 25.7 0.00 0.00 0.00 38 1022.6
20260509001537 18 304 9.7 22.5 0.00 0.00 0.00 35 1022.2
20260508233032 19 271 9.7 30.6 0.00 0.00 0.00 33 1022.0
20260508230105 19 262 9.7 32.2 0.00 0.00 0.00 31 1021.8
20260508224608 19 296 9.7 20.9 0.00 0.00 0.00 30 1021.7
20260508223035 20 297 11.3 30.6 0.00 0.00 0.00 29 1021.7
20260508221533 20 271 9.7 27.4 0.00 0.00 0.00 28 1021.7
20260508220034 20 250 9.7 30.6 0.00 0.00 0.00 28 1021.7
20260508214535 20 258 11.3 30.6 0.00 0.00 0.00 27 1021.8
20260508213034 19 253 12.9 41.8 0.00 0.00 0.00 26 1021.8
20260508211618 19 244 16.1 45.1 0.00 0.00 0.00 26 1021.6
20260508211608 19 242 14.5 33.8 0.00 0.00 0.00 25 1021.6
20260508204535 19 228 16.1 37.0 0.00 0.00 0.00 27 1021.6
20260508203037 18 248 16.1 41.8 0.00 0.00 0.00 28 1021.4
20260508201544 18 258 14.5 38.6 0.00 0.00 0.00 28 1021.4
20260508200035 18 248 17.7 40.2 0.00 0.00 0.00 29 1021.3
20260508194535 17 232 22.5 43.5 0.00 0.00 0.00 28 1021.3
20260508193036 18 233 20.9 59.5 0.00 0.00 0.00 30 1021.2
20260508191535 18 224 19.3 40.2 0.00 0.00 0.00 32 1021.2
20260508190035 18 239 11.3 30.6 0.00 0.00 0.00 33 1021.3
20260508184535 18 237 8.0 22.5 0.00 0.00 0.00 35 1021.3
20260508183036 15 317 1.6 12.9 0.00 0.00 0.00 52 1021.2
20260508181538 13 61 1.6 9.7 0.00 0.00 0.00 63 1021.0
20260508180036 12 134 1.6 6.4 0.00 0.00 0.00 65 1021.1
20260508174535 12 171 1.6 6.4 0.00 0.00 0.00 64 1021.2
20260508173110 12 150 1.6 6.4 0.00 0.00 0.00 64 1020.8
20260508171536 11 147 4.8 9.7 0.00 0.00 0.00 64 1020.7
20260508163035 12 134 6.4 14.5 0.00 0.00 0.00 61 1020.6
20260508161532 13 72 8.0 22.5 0.00 0.00 0.00 56 1020.5
20260508160032 14 230 11.3 24.1 0.00 0.00 0.00 50 1020.3
20260508154607 14 226 4.8 20.9 0.00 0.00 0.00 55 1020.4
20260508153036 13 243 11.3 25.7 0.00 0.00 0.00 58 1020.3